sat.trackr.live / text

‹ back to catalog

STARLINK-31515

NORAD 59476 · 2024-068X

PAYLOAD ACTIVE UNKNOWN

§ Identity

Operator
Country
US
Launch date
2024-04-10
Launch site
AFETR
Launch vehicle
Mass (kg)
RCS (m²)

Purposes: comms

External: N2YO · Heavens-Above · Gunter

§ Orbital elements

Epoch: 2026-05-25T04:42:08.646624Z

Period
94.27 min
Inclination
43.0026°
Eccentricity
0.0001405
Mean motion
15.27575656 rev/d
Perigee alt
482.1 km
Apogee alt
484.0 km
Semi-major
6,861.2 km
B*
-3.1113e-5
RAAN
322.4220°
Arg perigee
271.7146°
Mean anomaly
88.3545°
Rev number
12,022

§ Raw data

STARLINK-315151 59476U 24068X   26145.19593341 -.00001118  00000+0 -31113-4 0  99992 59476  43.0026 322.4220 0001405 271.7146  88.3545 15.27575656120220

JSON: /api/v1/satellites/59476 · /tle

For live sub-satellite position, see the globe view (requires WebGL).

§ Visibility from observer

Set your observer location to see the next 7 days of passes ≥ 10°. The values pass through the URL so the page stays shareable.

No JS? Fill the form by hand. The geolocation button needs JavaScript.